Location: Burgberg
(50.1428°N, 11.0671°E)
Time: 10:24:33
(UTC+00:00)

STARLINK-70 - Pass Details

Date: 26 January 2020
Orbit: 528 x 531 km, 53.0° (Epoch: 17 February)

Event Time Altitude Azimuth Distance (km) Brightness Sun altitude
Exits shadow 05:16:39 33° 278° (W) 903 4.1 -16.2°
Maximum altitude 05:18:17 64° 348° (NNW) 590 3.6 -15.9°
Drops below altitude 10° 05:22:17 10° 71° (ENE) 1,776 7.1 -15.3°
Sets 05:24:31 0° 75° (ENE) 2,667 8.3 -14.9°
